This demonstration page uses our WeatherBlox Daily Observations layout. Learn more.

Left ArrowRight Arrow

Hourly Observations for March 19, 2016

Temp ( °F °C ) Dew Point ( °F °C ) Humidity (%) Winds ( mph kmh ) Pressure ( in mb ) Visibility ( mi km ) Precip ( " mm )
12:15 am 00:15 Cloudy 28 -2 12 -11 51 51 WNW 6 9 30.36 1028 10 16 0.00 0.00
12:35 am 00:35 Cloudy 28 -2 12 -11 51 51 WNW 5 7 30.36 1028 10 16 0.00 0.00
12:55 am 00:55 Mostly Cloudy 27 -3 12 -11 54 54 WNW 5 7 30.36 1028 10 16 0.00 0.00
1:35 am 01:35 Cloudy 27 -3 12 -11 54 54 WNW 7 11 30.36 1028 10 16 0.00 0.00
1:55 am 01:55 Cloudy 27 -3 16 -9 64 64 WNW 5 7 30.36 1028 10 16 0.00 0.00
2:15 am 02:15 Cloudy 27 -3 12 -11 54 54 W 5 7 30.36 1028 10 16 0.00 0.00
2:35 am 02:35 Cloudy 28 -2 14 -10 55 55 WNW 8 13 30.39 1029 10 16 0.00 0.00
2:55 am 02:55 Cloudy 28 -2 14 -10 55 55 WNW 7 11 30.39 1029 10 16 0.00 0.00
3:15 am 03:15 Cloudy 28 -2 14 -10 55 55 WNW 8 13 30.39 1029 10 16 0.00 0.00
3:35 am 03:35 Cloudy 28 -2 14 -10 55 55 NW 10 17 30.36 1028 10 16 0.00 0.00
3:55 am 03:55 Cloudy 28 -2 14 -10 55 55 NW 9 15 30.36 1028 10 16 0.00 0.00
4:15 am 04:15 Cloudy 27 -3 14 -10 59 59 NW 8 13 30.36 1028 10 16 0.00 0.00
4:35 am 04:35 Cloudy 27 -3 14 -10 59 59 WNW 7 11 30.36 1028 10 16 0.00 0.00
4:55 am 04:55 Cloudy 27 -3 16 -9 64 64 WNW 7 11 30.36 1028 10 16 0.00 0.00
5:15 am 05:15 Cloudy 27 -3 16 -9 64 64 WNW 10 17 30.36 1028 10 16 0.00 0.00
5:55 am 05:55 Cloudy 28 -2 14 -10 55 55 NW 13 20 30.36 1028 10 16 0.00 0.00
6:15 am 06:15 Cloudy 28 -2 14 -10 55 55 NW 16 26 30.36 1028 10 16 0.00 0.00
6:35 am 06:35 Cloudy 28 -2 14 -10 55 55 NW 14 22 30.36 1028 10 16 0.00 0.00
6:55 am 06:55 Cloudy 28 -2 14 -10 55 55 NW 10 17 30.39 1029 10 16 0.00 0.00
7:15 am 07:15 Partly Cloudy 28 -2 12 -11 51 51 NNW 10 17 30.39 1029 10 16 0.00 0.00
7:35 am 07:35 Clear 27 -3 12 -11 54 54 NW 9 15 30.42 1030 10 16 0.00 0.00
7:55 am 07:55 Sunny 27 -3 12 -11 54 54 NNW 9 15 30.42 1030 10 16 0.00 0.00
8:35 am 08:35 Mostly Sunny 27 -3 14 -10 59 59 NW 13 20 30.42 1030 10 16 0.00 0.00
8:55 am 08:55 Sunny 27 -3 14 -10 59 59 NW 17 28 30.42 1030 10 16 0.00 0.00
9:15 am 09:15 Sunny 28 -2 14 -10 55 55 NW 22 35 30.39 1029 10 16 0.00 0.00
9:35 am 09:35 Sunny 28 -2 14 -10 55 55 NW 25 41 30.39 1029 10 16 0.00 0.00
10:35 am 10:35 Partly Cloudy 32 0 12 -11 44 44 NW 23 37 30.39 1029 10 16 0.00 0.00
10:55 am 10:55 Mostly Cloudy 34 1 14 -10 44 44 NNW 23 37 30.39 1029 10 16 0.00 0.00
11:55 am 11:55 Cloudy 36 2 16 -9 44 44 NNW 22 35 30.39 1029 10 16 0.00 0.00
12:15 pm 12:15 Cloudy 36 2 16 -9 44 44 NNW 25 41 30.39 1029 10 16 0.00 0.00
12:35 pm 12:35 Cloudy 36 2 16 -9 44 44 NNW 22 35 30.39 1029 10 16 0.00 0.00
12:55 pm 12:55 Cloudy 36 2 16 -9 44 44 NNW 23 37 30.39 1029 10 16 0.00 0.00
1:15 pm 13:15 Cloudy 36 2 16 -9 44 44 NNW 22 35 30.39 1029 10 16 0.00 0.00
1:35 pm 13:35 Cloudy 37 3 16 -9 41 41 N 23 37 30.36 1028 10 16 0.00 0.00
1:55 pm 13:55 Cloudy 37 3 14 -10 38 38 NNW 23 37 30.36 1028 9 14 0.00 0.00
2:15 pm 14:15 Cloudy 37 3 16 -9 41 41 NNW 24 39 30.36 1028 10 16 0.00 0.00
2:35 pm 14:35 Cloudy 37 3 16 -9 41 41 NNW 22 35 30.36 1028 10 16 0.00 0.00
2:55 pm 14:55 Cloudy 37 3 16 -9 41 41 N 25 41 30.36 1028 10 16 0.00 0.00
3:35 pm 15:35 Cloudy 36 2 18 -8 48 48 N 17 28 30.36 1028 10 16 0.00 0.00
3:55 pm 15:55 Cloudy 37 3 16 -9 41 41 N 23 37 30.36 1028 10 16 0.00 0.00
4:15 pm 16:15 Cloudy 37 3 18 -8 45 45 NNW 16 26 30.36 1028 10 16 0.00 0.00
4:35 pm 16:35 Cloudy 36 2 18 -8 48 48 NNW 15 24 30.36 1028 10 16 0.00 0.00
5:15 pm 17:15 Cloudy 37 3 16 -9 41 41 N 20 31 30.36 1028 10 16 0.00 0.00
5:35 pm 17:35 Cloudy 36 2 16 -9 44 44 N 17 28 30.36 1028 10 16 0.00 0.00
5:55 pm 17:55 Cloudy 36 2 18 -8 48 48 N 18 30 30.39 1029 10 16 0.00 0.00
6:15 pm 18:15 Cloudy 36 2 18 -8 48 48 N 21 33 30.39 1029 10 16 0.00 0.00
6:35 pm 18:35 Cloudy 36 2 18 -8 48 48 N 21 33 30.39 1029 10 16 0.00 0.00
6:55 pm 18:55 Cloudy 36 2 16 -9 44 44 N 17 28 30.39 1029 10 16 0.00 0.00
7:15 pm 19:15 Cloudy 36 2 16 -9 44 44 N 15 24 30.39 1029 10 16 0.00 0.00
7:35 pm 19:35 Cloudy 36 2 18 -8 48 48 N 16 26 30.39 1029 10 16 0.00 0.00
7:55 pm 19:55 Cloudy 36 2 16 -9 44 44 NNW 15 24 30.42 1030 10 16 0.00 0.00
8:15 pm 20:15 Cloudy 34 1 16 -9 48 48 NNW 12 19 30.42 1030 10 16 0.00 0.00
8:35 pm 20:35 Cloudy 34 1 16 -9 48 48 NNW 12 19 30.42 1030 10 16 0.00 0.00
9:15 pm 21:15 Cloudy 30 -1 16 -9 55 55 NNW 8 13 30.45 1031 10 16 0.00 0.00
9:35 pm 21:35 Cloudy 30 -1 18 -8 59 59 NNW 10 17 30.45 1031 10 16 0.00 0.00
9:55 pm 21:55 Cloudy 30 -1 18 -8 59 59 NNW 9 15 30.45 1031 10 16 0.00 0.00
10:15 pm 22:15 Cloudy 30 -1 18 -8 59 59 NNW 10 17 30.48 1032 10 16 0.00 0.00
11:15 pm 23:15 Clear 27 -3 16 -9 64 64 NNW 7 11 30.50 1033 10 16 0.00 0.00
11:35 pm 23:35 Clear 25 -4 14 -10 63 63 NW 3 6 30.50 1033 10 16 0.00 0.00
11:55 pm 23:55 Clear 21 -6 12 -11 68 68 NW 7 11 30.53 1034 10 16 0.00 0.00

Powered by AerisWeather